Time,TemperatureF,DewpointF,PressureIn,WindDirection,WindDirectionDegrees,WindSpeedMPH,WindSpeedGustMPH,Humidity,HourlyPrecipIn,Conditions,Clouds,dailyrainin,SoftwareType,DateUTC
2013-03-15 00:02:00,30.8,22.8,30.10,SW,215,4.0,5.0,72,0.00,,,0.00,Wunderground v.1.15,2013-03-15 04:02:00,
2013-03-15 00:07:00,31.2,22.9,30.10,SW,223,5.0,5.0,71,0.00,,,0.00,Wunderground v.1.15,2013-03-15 04:07:00,
2013-03-15 00:17:00,31.7,23.0,30.10,SW,227,5.0,6.0,70,0.00,,,0.00,Wunderground v.1.15,2013-03-15 04:17:00,
2013-03-15 00:22:00,31.8,22.8,30.10,SW,221,5.0,6.0,69,0.00,,,0.00,Wunderground v.1.15,2013-03-15 04:22:00,
2013-03-15 00:27:00,31.7,23.0,30.10,SW,234,5.0,5.0,70,0.00,,,0.00,Wunderground v.1.15,2013-03-15 04:27:00,
2013-03-15 00:32:00,31.6,22.9,30.10,WSW,240,5.0,5.0,70,0.00,,,0.00,Wunderground v.1.15,2013-03-15 04:32:00,
2013-03-15 00:42:00,31.4,22.7,30.09,SW,223,5.0,8.0,70,0.00,,,0.00,Wunderground v.1.15,2013-03-15 04:42:00,
2013-03-15 00:47:00,31.6,22.9,30.09,WSW,238,6.0,7.0,70,0.00,,,0.00,Wunderground v.1.15,2013-03-15 04:47:00,
2013-03-15 00:57:00,31.7,23.4,30.09,West,261,6.0,11.0,71,0.00,,,0.00,Wunderground v.1.15,2013-03-15 04:57:00,
2013-03-15 01:02:00,31.9,23.2,30.08,WSW,253,7.0,11.0,70,0.00,,,0.00,Wunderground v.1.15,2013-03-15 05:02:00,
2013-03-15 01:07:00,32.1,23.4,30.08,WSW,255,7.0,11.0,70,0.00,,,0.00,Wunderground v.1.15,2013-03-15 05:07:00,
2013-03-15 01:17:00,32.8,24.1,30.09,WSW,244,8.0,8.0,70,0.00,,,0.00,Wunderground v.1.15,2013-03-15 05:17:00,
2013-03-15 01:22:00,33.4,24.7,30.08,WSW,250,8.0,9.0,70,0.00,,,0.00,Wunderground v.1.15,2013-03-15 05:22:00,
2013-03-15 01:32:00,33.9,24.8,30.09,WSW,249,9.0,10.0,69,0.00,,,0.00,Wunderground v.1.15,2013-03-15 05:32:00,
2013-03-15 01:42:00,34.1,25.0,30.08,WSW,251,10.0,10.0,69,0.00,,,0.00,Wunderground v.1.15,2013-03-15 05:42:00,
2013-03-15 01:52:00,33.8,25.0,30.08,WSW,249,8.0,11.0,70,0.00,,,0.00,Wunderground v.1.15,2013-03-15 05:52:00,
2013-03-15 01:57:00,33.7,25.0,30.08,West,263,9.0,9.0,70,0.00,,,0.00,Wunderground v.1.15,2013-03-15 05:57:00,
2013-03-15 02:07:00,33.7,25.0,30.08,West,259,9.0,9.0,70,0.00,,,0.00,Wunderground v.1.15,2013-03-15 06:07:00,
2013-03-15 02:12:00,33.8,25.0,30.07,WSW,246,9.0,9.0,70,0.00,,,0.00,Wunderground v.1.15,2013-03-15 06:12:00,
2013-03-15 02:22:00,33.8,25.0,30.07,West,267,9.0,10.0,70,0.00,,,0.00,Wunderground v.1.15,2013-03-15 06:22:00,
2013-03-15 02:27:00,33.4,25.0,30.07,WSW,246,9.0,10.0,71,0.00,,,0.00,Wunderground v.1.15,2013-03-15 06:27:00,
2013-03-15 02:37:00,33.0,25.0,30.06,WSW,257,8.0,8.0,72,0.00,,,0.00,Wunderground v.1.15,2013-03-15 06:37:00,
2013-03-15 02:42:00,32.9,24.9,30.06,WSW,253,8.0,8.0,72,0.00,,,0.00,Wunderground v.1.15,2013-03-15 06:42:00,
2013-03-15 02:52:00,32.7,25.0,30.06,WSW,248,8.0,8.0,73,0.00,,,0.00,Wunderground v.1.15,2013-03-15 06:52:00,
2013-03-15 02:57:00,32.8,25.1,30.06,WSW,252,8.0,8.0,73,0.00,,,0.00,Wunderground v.1.15,2013-03-15 06:57:00,
2013-03-15 03:07:00,32.6,24.9,30.05,WSW,250,7.0,7.0,73,0.00,,,0.00,Wunderground v.1.15,2013-03-15 07:07:00,
2013-03-15 03:12:00,32.8,25.1,30.05,SW,236,7.0,7.0,73,0.00,,,0.00,Wunderground v.1.15,2013-03-15 07:12:00,
2013-03-15 03:22:00,33.0,25.6,30.05,WSW,252,6.0,7.0,74,0.00,,,0.00,Wunderground v.1.15,2013-03-15 07:22:00,
2013-03-15 03:32:00,33.3,25.6,30.05,WSW,238,7.0,9.0,73,0.00,,,0.00,Wunderground v.1.15,2013-03-15 07:32:00,
2013-03-15 03:37:00,33.3,25.6,30.04,WSW,256,7.0,7.0,73,0.00,,,0.00,Wunderground v.1.15,2013-03-15 07:37:00,
2013-03-15 03:47:00,33.1,25.7,30.04,SW,233,5.0,7.0,74,0.00,,,0.00,Wunderground v.1.15,2013-03-15 07:47:00,
2013-03-15 03:57:00,32.4,25.4,30.03,WSW,242,5.0,5.0,75,0.00,,,0.00,Wunderground v.1.15,2013-03-15 07:57:00,
2013-03-15 04:07:00,32.1,25.4,30.03,WSW,238,6.0,6.0,76,0.00,,,0.00,Wunderground v.1.15,2013-03-15 08:07:00,
2013-03-15 04:17:00,31.9,25.2,30.03,SW,228,5.0,5.0,76,0.00,,,0.00,Wunderground v.1.15,2013-03-15 08:17:00,
2013-03-15 04:22:00,31.9,25.5,30.02,SW,221,5.0,6.0,77,0.00,,,0.00,Wunderground v.1.15,2013-03-15 08:22:00,
2013-03-15 04:32:00,31.8,25.4,30.01,SW,236,6.0,6.0,77,0.00,,,0.00,Wunderground v.1.15,2013-03-15 08:32:00,
2013-03-15 04:42:00,31.7,25.6,30.01,SW,236,5.0,6.0,78,0.00,,,0.00,Wunderground v.1.15,2013-03-15 08:42:00,
2013-03-15 04:52:00,31.6,25.5,30.01,SW,227,5.0,5.0,78,0.00,,,0.00,Wunderground v.1.15,2013-03-15 08:52:00,
2013-03-15 04:57:00,31.5,25.4,30.00,SW,227,5.0,5.0,78,0.00,,,0.00,Wunderground v.1.15,2013-03-15 08:57:00,
2013-03-15 05:07:00,31.4,25.3,30.00,SW,221,5.0,7.0,78,0.00,,,0.00,Wunderground v.1.15,2013-03-15 09:07:00,
2013-03-15 05:12:00,31.4,25.6,30.00,SW,221,6.0,7.0,79,0.00,,,0.00,Wunderground v.1.15,2013-03-15 09:12:00,
2013-03-15 05:22:00,31.5,25.7,30.00,WSW,244,6.0,8.0,79,0.00,,,0.00,Wunderground v.1.15,2013-03-15 09:22:00,
2013-03-15 05:27:00,31.6,25.8,30.00,WSW,240,7.0,10.0,79,0.00,,,0.00,Wunderground v.1.15,2013-03-15 09:27:00,
2013-03-15 05:37:00,32.2,27.0,29.99,WSW,246,10.0,10.0,81,0.00,,,0.00,Wunderground v.1.15,2013-03-15 09:37:00,
2013-03-15 05:47:00,32.6,27.7,29.99,WSW,248,12.0,12.0,82,0.00,,,0.00,Wunderground v.1.15,2013-03-15 09:47:00,
2013-03-15 05:57:00,32.6,28.0,29.98,WSW,248,12.0,12.0,83,0.00,,,0.00,Wunderground v.1.15,2013-03-15 09:57:00,
2013-03-15 06:07:00,32.6,28.0,29.98,West,260,12.0,12.0,83,0.00,,,0.00,Wunderground v.1.15,2013-03-15 10:07:00,
2013-03-15 06:12:00,32.6,28.0,29.98,WSW,243,12.0,15.0,83,0.00,,,0.00,Wunderground v.1.15,2013-03-15 10:12:00,
2013-03-15 06:22:00,32.8,28.5,29.98,WSW,241,12.0,13.0,84,0.00,,,0.00,Wunderground v.1.15,2013-03-15 10:22:00,
2013-03-15 06:32:00,32.8,28.5,29.98,West,261,11.0,12.0,84,0.00,,,0.00,Wunderground v.1.15,2013-03-15 10:32:00,
2013-03-15 06:37:00,32.8,28.5,29.98,WSW,257,10.0,10.0,84,0.00,,,0.00,Wunderground v.1.15,2013-03-15 10:37:00,
2013-03-15 06:42:00,32.9,28.6,29.97,WSW,249,10.0,10.0,84,0.00,,,0.00,Wunderground v.1.15,2013-03-15 10:42:00,
2013-03-15 06:52:00,33.0,29.0,29.97,WSW,238,10.0,11.0,85,0.00,,,0.00,Wunderground v.1.15,2013-03-15 10:52:00,
2013-03-15 06:57:00,33.1,28.8,29.97,WSW,244,10.0,10.0,84,0.00,,,0.00,Wunderground v.1.15,2013-03-15 10:57:00,
2013-03-15 07:07:00,33.1,28.8,29.96,SW,231,10.0,10.0,84,0.00,,,0.00,Wunderground v.1.15,2013-03-15 11:07:00,
2013-03-15 07:17:00,33.0,28.7,29.96,WSW,247,9.0,9.0,84,0.00,,,0.00,Wunderground v.1.15,2013-03-15 11:17:00,
2013-03-15 07:27:00,32.7,28.7,29.95,WSW,246,8.0,8.0,85,0.00,,,0.00,Wunderground v.1.15,2013-03-15 11:27:00,
2013-03-15 07:32:00,32.5,28.5,29.95,SW,218,8.0,8.0,85,0.00,,,0.00,Wunderground v.1.15,2013-03-15 11:32:00,
2013-03-15 07:42:00,32.2,28.2,29.95,WSW,247,6.0,7.0,85,0.00,,,0.00,Wunderground v.1.15,2013-03-15 11:42:00,
2013-03-15 07:52:00,32.0,28.3,29.95,West,263,6.0,6.0,86,0.00,,,0.00,Wunderground v.1.15,2013-03-15 11:52:00,
2013-03-15 07:57:00,32.0,28.3,29.95,WSW,246,7.0,8.0,86,0.00,,,0.00,Wunderground v.1.15,2013-03-15 11:57:00,
2013-03-15 08:07:00,32.0,28.3,29.95,WSW,254,7.0,10.0,86,0.00,,,0.00,Wunderground v.1.15,2013-03-15 12:07:00,
2013-03-15 08:12:00,32.0,28.3,29.95,WSW,247,7.0,10.0,86,0.00,,,0.00,Wunderground v.1.15,2013-03-15 12:12:00,
2013-03-15 08:22:00,32.2,28.8,29.95,WSW,243,7.0,8.0,87,0.00,,,0.00,Wunderground v.1.15,2013-03-15 12:22:00,
2013-03-15 08:32:00,32.4,29.0,29.95,WSW,250,7.0,7.0,87,0.00,,,0.00,Wunderground v.1.15,2013-03-15 12:32:00,
2013-03-15 08:42:00,32.6,28.9,29.95,SW,232,8.0,8.0,86,0.00,,,0.00,Wunderground v.1.15,2013-03-15 12:42:00,
2013-03-15 08:47:00,32.7,29.3,29.95,SW,227,7.0,8.0,87,0.00,,,0.00,Wunderground v.1.15,2013-03-15 12:47:00,
2013-03-15 08:57:00,33.0,29.3,29.95,WSW,250,9.0,9.0,86,0.00,,,0.00,Wunderground v.1.15,2013-03-15 12:57:00,
2013-03-15 09:07:00,33.3,29.6,29.95,WSW,243,10.0,11.0,86,0.00,,,0.00,Wunderground v.1.15,2013-03-15 13:07:00,
2013-03-15 09:17:00,33.6,29.6,29.95,WSW,249,11.0,14.0,85,0.00,,,0.00,Wunderground v.1.15,2013-03-15 13:17:00,
2013-03-15 09:22:00,33.7,29.7,29.95,WSW,248,12.0,14.0,85,0.00,,,0.00,Wunderground v.1.15,2013-03-15 13:22:00,
2013-03-15 09:32:00,33.9,29.6,29.94,SW,236,11.0,11.0,84,0.00,,,0.00,Wunderground v.1.15,2013-03-15 13:32:00,
2013-03-15 09:37:00,34.0,29.7,29.94,WSW,245,11.0,11.0,84,0.00,,,0.00,Wunderground v.1.15,2013-03-15 13:37:00,
2013-03-15 09:47:00,34.2,29.9,29.94,WSW,255,11.0,11.0,84,0.00,,,0.00,Wunderground v.1.15,2013-03-15 13:47:00,
2013-03-15 09:57:00,34.6,30.0,29.93,WSW,250,10.0,13.0,83,0.00,,,0.00,Wunderground v.1.15,2013-03-15 13:57:00,
2013-03-15 10:07:00,34.8,29.9,29.93,WSW,240,11.0,11.0,82,0.00,,,0.00,Wunderground v.1.15,2013-03-15 14:07:00,
2013-03-15 10:12:00,34.9,30.0,29.93,WSW,257,11.0,11.0,82,0.00,,,0.00,Wunderground v.1.15,2013-03-15 14:12:00,
2013-03-15 10:22:00,35.2,30.3,29.93,West,269,11.0,12.0,82,0.00,,,0.00,Wunderground v.1.15,2013-03-15 14:22:00,
2013-03-15 10:32:00,35.4,30.5,29.93,WSW,250,10.0,11.0,82,0.00,,,0.00,Wunderground v.1.15,2013-03-15 14:32:00,
2013-03-15 10:42:00,35.5,30.5,29.93,West,263,10.0,11.0,82,0.00,,,0.00,Wunderground v.1.15,2013-03-15 14:42:00,
2013-03-15 10:47:00,35.6,30.3,29.93,West,261,10.0,10.0,81,0.00,,,0.00,Wunderground v.1.15,2013-03-15 14:47:00,
2013-03-15 10:57:00,35.7,30.4,29.93,West,264,10.0,13.0,81,0.00,,,0.00,Wunderground v.1.15,2013-03-15 14:57:00,
2013-03-15 11:07:00,35.9,30.3,29.92,WSW,258,9.0,12.0,80,0.00,,,0.00,Wunderground v.1.15,2013-03-15 15:07:00,
2013-03-15 11:17:00,36.1,30.8,29.92,West,269,9.0,11.0,81,0.00,,,0.00,Wunderground v.1.15,2013-03-15 15:17:00,
2013-03-15 11:27:00,36.3,31.0,29.92,West,271,9.0,10.0,81,0.00,,,0.00,Wunderground v.1.15,2013-03-15 15:27:00,
2013-03-15 11:32:00,36.4,31.1,29.92,West,263,9.0,10.0,81,0.00,,,0.00,Wunderground v.1.15,2013-03-15 15:32:00,
2013-03-15 11:37:00,36.7,31.1,29.92,West,265,9.0,12.0,80,0.00,,,0.00,Wunderground v.1.15,2013-03-15 15:37:00,
2013-03-15 11:47:00,36.8,31.2,29.92,West,267,11.0,11.0,80,0.00,,,0.00,Wunderground v.1.15,2013-03-15 15:47:00,
2013-03-15 11:57:00,36.9,31.0,29.92,West,267,11.0,13.0,79,0.00,,,0.00,Wunderground v.1.15,2013-03-15 15:57:00,
2013-03-15 12:07:00,37.0,31.1,29.92,West,266,11.0,11.0,79,0.00,,,0.00,Wunderground v.1.15,2013-03-15 16:07:00,
2013-03-15 12:17:00,37.4,31.8,29.91,WSW,248,11.0,11.0,80,0.00,,,0.00,Wunderground v.1.15,2013-03-15 16:17:00,
2013-03-15 12:27:00,37.8,31.6,29.91,West,261,10.0,12.0,78,0.00,,,0.00,Wunderground v.1.15,2013-03-15 16:27:00,
2013-03-15 12:32:00,37.9,32.0,29.91,West,281,10.0,13.0,79,0.00,,,0.00,Wunderground v.1.15,2013-03-15 16:32:00,
2013-03-15 12:42:00,38.2,31.9,29.91,WSW,256,10.0,10.0,78,0.00,,,0.00,Wunderground v.1.15,2013-03-15 16:42:00,
2013-03-15 12:52:00,38.6,32.0,29.91,WSW,257,10.0,10.0,77,0.00,,,0.00,Wunderground v.1.15,2013-03-15 16:52:00,
2013-03-15 12:58:00,38.7,32.1,29.91,WSW,251,11.0,11.0,77,0.00,,,0.00,Wunderground v.1.15,2013-03-15 16:58:00,
2013-03-15 13:07:00,38.9,32.3,29.92,West,276,11.0,11.0,77,0.00,,,0.00,Wunderground v.1.15,2013-03-15 17:07:00,
2013-03-15 13:17:00,39.3,32.4,29.91,WNW,288,10.0,13.0,76,0.00,,,0.00,Wunderground v.1.15,2013-03-15 17:17:00,
2013-03-15 13:27:00,40.0,32.7,29.91,WNW,286,9.0,10.0,75,0.00,,,0.00,Wunderground v.1.15,2013-03-15 17:27:00,
2013-03-15 13:37:00,40.2,32.9,29.91,WNW,283,8.0,8.0,75,0.00,,,0.00,Wunderground v.1.15,2013-03-15 17:37:00,
2013-03-15 13:42:00,40.3,33.0,29.91,West,263,8.0,9.0,75,0.00,,,0.00,Wunderground v.1.15,2013-03-15 17:42:00,
2013-03-15 13:52:00,40.4,33.1,29.90,West,276,9.0,9.0,75,0.00,,,0.00,Wunderground v.1.15,2013-03-15 17:52:00,
2013-03-15 13:57:00,40.6,33.3,29.90,WSW,246,8.0,8.0,75,0.00,,,0.00,Wunderground v.1.15,2013-03-15 17:57:00,
2013-03-15 14:07:00,41.2,33.9,29.90,West,281,8.0,9.0,75,0.00,,,0.00,Wunderground v.1.15,2013-03-15 18:07:00,
2013-03-15 14:12:00,41.2,33.5,29.90,West,274,7.0,9.0,74,0.00,,,0.00,Wunderground v.1.15,2013-03-15 18:12:00,
2013-03-15 14:22:00,41.9,33.5,29.89,West,277,7.0,9.0,72,0.00,,,0.00,Wunderground v.1.15,2013-03-15 18:22:00,
2013-03-15 14:32:00,41.7,33.3,29.88,WSW,242,7.0,9.0,72,0.00,,,0.00,Wunderground v.1.15,2013-03-15 18:32:00,
2013-03-15 14:37:00,41.9,33.9,29.88,West,261,8.0,9.0,73,0.00,,,0.00,Wunderground v.1.15,2013-03-15 18:37:00,
2013-03-15 14:47:00,41.8,33.4,29.88,SW,214,6.0,6.0,72,0.00,,,0.00,Wunderground v.1.15,2013-03-15 18:47:00,
2013-03-15 14:57:00,42.1,34.1,29.87,West,275,7.0,8.0,73,0.00,,,0.00,Wunderground v.1.15,2013-03-15 18:57:00,
2013-03-15 15:07:00,43.1,34.3,29.86,NW,306,7.0,7.0,71,0.00,,,0.00,Wunderground v.1.15,2013-03-15 19:07:00,
2013-03-15 15:17:00,42.6,33.9,29.86,WSW,257,7.0,9.0,71,0.00,,,0.00,Wunderground v.1.15,2013-03-15 19:17:00,
2013-03-15 15:22:00,42.6,33.9,29.86,WNW,287,8.0,9.0,71,0.00,,,0.00,Wunderground v.1.15,2013-03-15 19:22:00,
2013-03-15 15:32:00,42.9,34.1,29.86,West,271,7.0,8.0,71,0.00,,,0.00,Wunderground v.1.15,2013-03-15 19:32:00,
2013-03-15 15:37:00,42.8,34.0,29.86,West,274,8.0,8.0,71,0.00,,,0.00,Wunderground v.1.15,2013-03-15 19:37:00,
2013-03-15 15:47:00,43.0,34.9,29.86,WNW,292,8.0,8.0,73,0.00,,,0.00,Wunderground v.1.15,2013-03-15 19:47:00,
2013-03-15 15:52:00,43.2,34.8,29.86,NNW,335,7.0,8.0,72,0.00,,,0.00,Wunderground v.1.15,2013-03-15 19:52:00,
2013-03-15 15:57:00,43.2,34.8,29.86,WSW,248,6.0,6.0,72,0.00,,,0.00,Wunderground v.1.15,2013-03-15 19:57:00,
2013-03-15 16:07:00,43.2,35.1,29.86,West,259,8.0,8.0,73,0.00,,,0.00,Wunderground v.1.15,2013-03-15 20:07:00,
2013-03-15 16:17:00,43.4,34.6,29.86,West,277,8.0,10.0,71,0.00,,,0.00,Wunderground v.1.15,2013-03-15 20:17:00,
2013-03-15 16:22:00,43.4,35.0,29.86,West,275,9.0,10.0,72,0.00,,,0.00,Wunderground v.1.15,2013-03-15 20:22:00,
2013-03-15 16:32:00,43.7,35.3,29.85,WSW,253,8.0,9.0,72,0.00,,,0.00,Wunderground v.1.15,2013-03-15 20:32:00,
2013-03-15 16:42:00,43.7,35.3,29.85,West,274,9.0,10.0,72,0.00,,,0.00,Wunderground v.1.15,2013-03-15 20:42:00,
2013-03-15 16:52:00,44.0,35.6,29.85,West,277,9.0,9.0,72,0.00,,,0.00,Wunderground v.1.15,2013-03-15 20:52:00,
2013-03-15 16:57:00,43.9,35.5,29.86,West,263,8.0,9.0,72,0.00,,,0.00,Wunderground v.1.15,2013-03-15 20:57:00,
2013-03-15 17:07:00,43.9,35.8,29.86,West,275,6.0,7.0,73,0.00,,,0.00,Wunderground v.1.15,2013-03-15 21:07:00,
2013-03-15 17:12:00,43.9,35.1,29.86,WSW,250,7.0,10.0,71,0.00,,,0.00,Wunderground v.1.15,2013-03-15 21:12:00,
2013-03-15 17:22:00,43.8,35.4,29.85,West,261,9.0,12.0,72,0.00,,,0.00,Wunderground v.1.15,2013-03-15 21:22:00,
2013-03-15 17:32:00,43.8,35.7,29.85,WSW,246,7.0,10.0,73,0.00,,,0.00,Wunderground v.1.15,2013-03-15 21:32:00,
2013-03-15 17:42:00,43.8,35.7,29.85,WNW,284,8.0,9.0,73,0.00,,,0.00,Wunderground v.1.15,2013-03-15 21:42:00,
2013-03-15 17:47:00,43.8,35.7,29.85,West,277,7.0,7.0,73,0.00,,,0.00,Wunderground v.1.15,2013-03-15 21:47:00,
2013-03-15 17:57:00,43.6,35.9,29.85,West,270,8.0,8.0,74,0.00,,,0.00,Wunderground v.1.15,2013-03-15 21:57:00,
2013-03-15 18:07:00,43.4,36.3,29.85,West,269,7.0,8.0,76,0.00,,,0.00,Wunderground v.1.15,2013-03-15 22:07:00,
2013-03-15 18:17:00,43.2,36.5,29.86,West,275,6.0,6.0,77,0.00,,,0.00,Wunderground v.1.15,2013-03-15 22:17:00,
2013-03-15 18:27:00,43.0,36.6,29.85,West,269,5.0,8.0,78,0.00,,,0.00,Wunderground v.1.15,2013-03-15 22:27:00,
2013-03-15 18:37:00,42.7,36.6,29.85,West,266,6.0,6.0,79,0.00,,,0.00,Wunderground v.1.15,2013-03-15 22:37:00,
2013-03-15 18:42:00,42.6,36.9,29.85,WNW,288,6.0,6.0,80,0.00,,,0.00,Wunderground v.1.15,2013-03-15 22:42:00,
2013-03-15 18:47:00,42.5,37.1,29.86,WNW,294,5.0,5.0,81,0.00,,,0.01,Wunderground v.1.15,2013-03-15 22:47:00,
2013-03-15 18:57:00,42.2,37.1,29.86,NW,311,5.0,5.0,82,0.00,,,0.01,Wunderground v.1.15,2013-03-15 22:57:00,
2013-03-15 19:07:00,41.9,37.1,29.86,NW,313,4.0,4.0,83,0.00,,,0.01,Wunderground v.1.15,2013-03-15 23:07:00,
2013-03-15 19:17:00,41.7,37.2,29.86,NW,319,4.0,4.0,84,0.00,,,0.01,Wunderground v.1.15,2013-03-15 23:17:00,
2013-03-15 19:27:00,41.4,37.2,29.86,NW,317,4.0,4.0,85,0.00,,,0.01,Wunderground v.1.15,2013-03-15 23:27:00,
2013-03-15 19:32:00,41.0,36.5,29.86,NNE,13,4.0,6.0,84,0.00,,,0.01,Wunderground v.1.15,2013-03-15 23:32:00,
2013-03-15 19:42:00,39.9,35.8,29.86,NNE,32,6.0,6.0,85,0.00,,,0.02,Wunderground v.1.15,2013-03-15 23:42:00,
2013-03-15 19:47:00,39.7,35.9,29.87,NE,53,5.0,5.0,86,0.00,,,0.02,Wunderground v.1.15,2013-03-15 23:47:00,
2013-03-15 19:57:00,39.1,35.6,29.87,ENE,61,5.0,7.0,87,0.00,,,0.02,Wunderground v.1.15,2013-03-15 23:57:00,
2013-03-15 20:07:00,38.8,35.6,29.87,East,83,4.0,5.0,88,0.00,,,0.03,Wunderground v.1.15,2013-03-16 00:07:00,
2013-03-15 20:17:00,38.4,35.2,29.87,NE,51,4.0,5.0,88,0.00,,,0.03,Wunderground v.1.15,2013-03-16 00:17:00,
2013-03-15 20:27:00,37.9,34.7,29.87,NE,40,6.0,6.0,88,0.00,,,0.04,Wunderground v.1.15,2013-03-16 00:27:00,
2013-03-15 20:32:00,37.8,34.6,29.87,NE,39,5.0,6.0,88,0.00,,,0.04,Wunderground v.1.15,2013-03-16 00:32:00,
2013-03-15 20:42:00,37.7,34.8,29.87,NE,55,5.0,5.0,89,0.00,,,0.04,Wunderground v.1.15,2013-03-16 00:42:00,
2013-03-15 20:47:00,37.5,34.3,29.87,NE,41,5.0,5.0,88,0.00,,,0.04,Wunderground v.1.15,2013-03-16 00:47:00,
2013-03-15 20:52:00,37.5,34.6,29.87,ENE,59,4.0,5.0,89,0.00,,,0.04,Wunderground v.1.15,2013-03-16 00:52:00,
2013-03-15 20:57:00,37.3,34.4,29.87,NE,53,4.0,7.0,89,0.00,,,0.04,Wunderground v.1.15,2013-03-16 00:57:00,
2013-03-15 21:07:00,37.1,34.2,29.87,ENE,62,5.0,5.0,89,0.00,,,0.05,Wunderground v.1.15,2013-03-16 01:07:00,
2013-03-15 21:17:00,36.8,33.9,29.87,ENE,74,6.0,7.0,89,0.00,,,0.05,Wunderground v.1.15,2013-03-16 01:17:00,
2013-03-15 21:22:00,36.7,33.8,29.87,East,86,6.0,7.0,89,0.00,,,0.05,Wunderground v.1.15,2013-03-16 01:22:00,
2013-03-15 21:32:00,36.4,33.5,29.87,East,93,6.0,7.0,89,0.00,,,0.05,Wunderground v.1.15,2013-03-16 01:32:00,
2013-03-15 21:42:00,36.4,33.5,29.87,East,84,5.0,6.0,89,0.00,,,0.05,Wunderground v.1.15,2013-03-16 01:42:00,
2013-03-15 21:52:00,36.2,33.5,29.87,East,80,4.0,6.0,90,0.00,,,0.05,Wunderground v.1.15,2013-03-16 01:52:00,
2013-03-15 21:57:00,36.1,33.5,29.87,East,89,5.0,5.0,90,0.00,,,0.06,Wunderground v.1.15,2013-03-16 01:57:00,
2013-03-15 22:07:00,36.0,33.4,29.87,ENE,74,4.0,4.0,90,0.00,,,0.06,Wunderground v.1.15,2013-03-16 02:07:00,
2013-03-15 22:17:00,35.8,33.2,29.86,East,84,4.0,5.0,90,0.04,,,0.07,Wunderground v.1.15,2013-03-16 02:17:00,
2013-03-15 22:27:00,35.6,33.2,29.86,ENE,65,5.0,5.0,91,0.00,,,0.07,Wunderground v.1.15,2013-03-16 02:27:00,
2013-03-15 22:32:00,35.6,33.2,29.86,ENE,72,5.0,5.0,91,0.00,,,0.07,Wunderground v.1.15,2013-03-16 02:32:00,
2013-03-15 22:42:00,35.6,33.2,29.86,East,84,5.0,5.0,91,0.00,,,0.07,Wunderground v.1.15,2013-03-16 02:42:00,
2013-03-15 22:47:00,35.5,33.1,29.86,East,84,5.0,6.0,91,0.00,,,0.07,Wunderground v.1.15,2013-03-16 02:47:00,
2013-03-15 22:57:00,35.4,33.0,29.86,ENE,72,4.0,8.0,91,0.00,,,0.08,Wunderground v.1.15,2013-03-16 02:57:00,
2013-03-15 23:07:00,35.3,32.9,29.86,East,94,5.0,6.0,91,0.00,,,0.08,Wunderground v.1.15,2013-03-16 03:07:00,
2013-03-15 23:12:00,35.2,32.8,29.85,East,91,5.0,6.0,91,0.00,,,0.08,Wunderground v.1.15,2013-03-16 03:12:00,
2013-03-15 23:22:00,35.0,32.6,29.85,East,92,5.0,5.0,91,0.00,,,0.08,Wunderground v.1.15,2013-03-16 03:22:00,
2013-03-15 23:27:00,35.0,32.6,29.85,ENE,70,5.0,5.0,91,0.00,,,0.08,Wunderground v.1.15,2013-03-16 03:27:00,
2013-03-15 23:37:00,35.0,32.6,29.86,NE,49,4.0,4.0,91,0.00,,,0.08,Wunderground v.1.15,2013-03-16 03:37:00,
2013-03-15 23:47:00,35.0,32.6,29.84,ENE,71,4.0,5.0,91,0.00,,,0.08,Wunderground v.1.15,2013-03-16 03:47:00,
2013-03-15 23:52:00,34.9,32.5,29.84,East,89,5.0,6.0,91,0.00,,,0.08,Wunderground v.1.15,2013-03-16 03:52:00,
2013-03-15 23:57:00,34.9,32.5,29.84,East,89,5.0,5.0,91,0.00,,,0.09,Wunderground v.1.15,2013-03-16 03:57:00,